Wetbulb
42.31 40.38 37.97 39.93 41.00 40.47 38.94 37.48 36.66 39.43 42.18 41.53 41.12 41.21 42.99 45.48 45.46 45.38 45.88 47.15 48.50 49.05 52.56 53.64 54.77 56.81 57.53 59.43 60.55 61.17 62.48 68.44 71.98 70.73 69.50 68.62 66.69 67.30 67.56 68.35 68.83 69.32 69.56 68.08
39.82 37.49 41.31 41.50 40.52 39.11 38.50 36.92 36.82 40.39 42.44 41.26 40.67 40.00 42.78 44.36 45.21 46.49 46.49 46.50 47.36 48.39 49.45 51.06 53.93 55.68 57.34 57.84 59.21 60.46 61.08 62.51 67.05 70.04 71.49 71.61 71.31 70.62 69.63 69.78 71.36 71.25 70.45 70.14
37.12 39.23 41.59 40.60 39.52 38.46 38.13 37.39 37.32 36.67 39.90 41.10 39.68 37.67 39.65 42.75 44.27 45.61 46.76 47.39 47.45 47.28 47.63 51.55 53.03 54.45 55.82 56.44 58.12 58.83 59.70 60.82 62.38 65.86 68.83 71.15 71.74 71.46 71.31 71.41 71.21 71.85 71.78 71.76
38.78 40.90 40.04 39.08 38.43 40.66 36.22 41.48 39.44 37.56 36.21 32.32 38.88 30.63 37.49 40.43 41.77 43.78 45.82 47.77 48.79 48.88 50.73 51.49 52.24 52.93 54.11 55.10 56.52 57.76 59.26 60.11 61.07 62.74 64.93 69.13 67.49 68.00 70.24 71.82 72.44 72.91 72.16 71.86
37.82 38.92 38.71 37.88 38.97 41.64 37.50 41.65 39.18 38.09 36.57 34.68 35.10 32.23 36.72 39.83 39.38 42.41 44.87 46.64 49.71 50.49 50.59 51.00 51.59 52.44 53.48 54.90 55.50 56.51 58.56 59.58 61.09 61.66 63.10 64.05 67.30 67.83 70.46 71.04 73.41 72.33 72.24 72.99
40.36 42.05 40.77 40.40 42.38 41.91 41.90 39.21 37.06 36.32 35.65 29.37 33.16 32.83 34.08 37.27 40.01 42.38 44.47 46.21 48.28 50.62 51.05 52.13 52.91 52.92 53.40 54.91 55.60 56.17 56.68 58.58 60.22 60.52 61.39 63.59 66.35 67.89 67.67 69.21 69.08 70.30 70.53 71.93
38.14 37.99 41.23 43.44 39.43 40.83 39.64 36.28 30.41 28.32 28.34 28.63 34.14 32.05 34.98 40.12 42.58 43.67 43.69 45.58 48.21 50.60 50.78 50.81 51.23 51.84 52.97 54.18 54.89 55.53 56.45 57.03 59.33 59.19 59.36 61.94 65.28 67.44 68.18 68.78 68.43 68.39 67.71 69.02
33.38 31.32 38.75 42.90 39.89 37.71 37.22 36.50 31.19 21.85 25.11 28.99 33.91 29.62 36.11 41.66 43.88 45.11 46.05 47.58 48.84 48.76 50.33 50.33 50.99 51.81 52.76 54.58 55.19 55.29 55.64 56.42 57.98 58.19 59.52 62.18 64.33 64.48 67.35 69.21 68.94 67.39 67.33 69.88
33.24 32.60 40.11 41.38 42.04 41.05 35.70 33.72 37.06 31.71 30.61 27.82 31.92 35.27 39.58 42.33 42.62 43.77 44.82 46.56 46.95 48.23 50.31 50.69 50.95 51.74 53.01 55.31 55.75 56.08 55.85 56.46 57.78 57.89 60.24 61.66 63.22 65.86 66.90 69.97 71.10 69.23 70.27 70.02
37.82 31.55 38.74 39.70 41.51 40.37 38.97 39.88 31.31 33.26 23.54 22.23 29.54 31.05 32.99 38.13 40.03 42.62 44.49 45.11 46.57 48.43 50.20 51.29 51.40 51.98 53.67 55.44 56.47 57.97 57.82 57.13 57.53 58.11 59.23 60.59 62.51 65.10 67.34 69.21 69.78 69.46 70.12 70.10
38.27 34.79 34.76 38.00 35.74 35.03 36.14 34.75 34.85 34.28 32.23 25.61 24.36 30.74 39.54 39.50 41.70 42.19 43.68 45.36 46.23 48.12 49.71 51.08 51.25 52.28 54.29 55.52 56.35 57.43 59.09 58.73 58.66 59.70 59.77 60.85 62.22 64.55 65.97 67.35 67.57 68.79 69.70 69.74
39.25 36.71 32.01 33.75 39.06 40.09 38.46 36.86 36.95 30.19 28.16 31.63 30.41 30.58 42.32 42.89 43.08 43.51 44.51 46.01 47.51 48.89 49.89 50.49 51.93 53.26 54.32 54.46 54.61 55.58 57.54 58.71 60.35 60.81 60.36 61.01 63.48 64.68 65.08 65.94 66.94 68.18 68.67 69.59
40.04 34.89 28.68 29.99 33.67 36.91 34.86 36.60 37.40 36.69 34.42 30.28 27.48 31.44 42.01 42.80 43.87 45.07 44.91 46.08 47.18 48.30 48.93 49.42 50.17 51.12 52.74 53.62 54.26 54.31 56.04 57.18 58.31 60.56 60.74 61.27 65.91 64.70 65.12 65.90 67.29 68.19 69.03 69.42
41.56 36.27 32.36 27.34 31.13 34.66 32.57 35.12 36.84 35.93 30.95 31.64 32.11 34.35 38.93 41.35 42.42 44.47 45.47 46.62 47.32 47.50 47.98 48.37 48.68 50.74 51.61 52.07 52.33 53.51 55.01 56.94 57.06 57.86 60.22 60.12 65.43 64.92 64.71 66.11 67.66 68.49 69.10 69.40
39.52 31.69 34.06 35.31 36.33 36.44 35.29 35.20 35.97 34.38 35.33 30.98 33.80 34.26 38.79 41.83 43.42 44.63 46.22 46.34 46.05 46.55 47.49 47.59 48.22 49.84 50.22 50.30 50.92 52.28 53.60 55.45 56.34 56.34 58.12 59.54 64.85 65.13 64.58 66.11 67.52 68.56 69.10 69.62
39.48 32.74 34.65 32.56 35.69 35.95 33.87 35.38 35.78 35.81 36.08 35.91 36.30 35.78 42.75 44.70 45.59 44.72 45.02 45.38 45.36 46.00 46.84 47.55 48.45 49.23 49.03 49.78 50.12 50.71 51.97 53.86 55.22 56.05 56.15 59.35 64.24 65.60 64.71 66.78 67.55 68.12 68.62 69.39
35.59 34.55 31.84 27.51 33.30 33.30 28.99 34.35 35.94 36.84 38.61 37.95 34.47 39.82 44.23 42.82 43.32 44.08 44.70 45.09 45.27 45.83 46.28 46.94 47.33 48.33 48.96 50.00 51.00 50.13 51.28 53.68 54.33 54.98 56.86 59.01 63.99 64.18 65.19 65.93 66.14 67.00 66.85 68.09
33.77 33.02 32.60 28.26 31.18 22.87 35.50 40.57 40.80 38.75 39.99 41.40 41.21 42.60 43.57 43.29 44.99 45.54 45.94 45.51 45.61 45.76 45.90 46.63 47.26 47.82 49.19 49.64 50.49 50.62 51.59 53.11 54.37 54.88 58.56 59.41 64.44 63.75 64.70 65.75 66.53 66.20 67.11 68.27
37.40 33.70 30.02 27.45 27.87 32.51 35.06 38.25 38.07 36.66 37.20 42.33 41.21 41.63 42.73 44.04 44.45 42.62 45.56 46.39 45.17 44.95 46.03 45.98 47.18 47.71 49.00 49.18 49.87 49.86 50.73 52.94 54.36 55.64 58.59 60.19 63.81 63.89 64.52 65.17 65.60 65.86 65.90 65.54
34.69 34.87 32.51 31.48 27.18 23.86 34.37 40.09 42.30 41.46 32.76 41.56 41.77 40.82 40.70 41.52 34.16 37.61 43.56 44.61 44.46 45.19 45.99 46.61 47.55 47.92 48.44 49.25 50.26 50.46 50.79 52.32 54.19 55.84 58.75 60.60 64.00 64.11 64.05 64.56 64.15 64.76 65.82 61.15
32.58 31.80 28.63 28.86 26.60 32.49 38.88 41.33 42.59 31.10 33.92 43.06 43.50 42.07 40.75 37.28 39.89 43.51 44.29 43.53 44.12 44.35 45.66 47.28 47.68 47.44 48.75 50.14 50.86 50.91 51.51 52.51 55.97 58.03 60.07 62.12 64.42 64.80 64.42 63.84 62.95 63.05 61.80 60.13
32.05 30.85 31.39 31.01 28.67 26.91 42.80 41.04 34.73 40.60 43.58 43.74 43.64 42.05 41.10 41.78 41.98 42.24 42.53 42.08 43.32 43.76 45.11 46.40 46.81 47.62 50.04 51.42 50.88 51.20 52.06 55.39 57.59 58.35 58.84 64.05 64.25 63.70 62.63 61.98 61.80 61.41 59.55 59.34
31.59 36.06 33.29 33.80 35.15 41.54 42.49 41.68 44.16 45.09 43.92 44.05 42.85 43.59 42.56 41.00 40.22 41.59 40.58 43.24 43.38 44.10 45.12 47.07 47.45 48.76 50.24 51.47 51.87 51.98 54.20 56.79 58.61 58.71 60.62 62.51 62.40 62.04 61.71 61.25 60.84 59.40 60.23 58.31
36.73 38.71 35.87 35.10 38.61 40.22 42.00 43.74 45.19 45.89 44.72 45.16 45.09 43.16 42.38 40.01 41.18 40.88 42.27 42.18 43.09 44.58 45.42 47.00 48.17 49.05 50.17 52.16 52.96 53.16 56.21 58.82 58.47 58.12 61.02 61.22 60.50 60.17 61.04 61.03 62.18 61.16 59.64 59.07
37.00 37.83 36.34 36.02 38.85 39.67 42.54 43.82 44.84 44.30 44.94 44.09 43.83 42.88 41.14 40.92 41.19 40.83 41.21 42.68 43.88 45.09 46.31 47.26 47.79 49.46 50.55 52.90 52.94 54.07 58.23 58.86 57.87 60.69 60.53 60.35 59.98 60.83 60.10 60.56 62.33 62.03 62.61 59.74
39.48 36.70 33.73 34.03 38.88 38.00 40.53 44.47 45.17 43.20 42.19 42.69 41.31 40.45 41.66 41.22 40.56 41.88 42.41 44.22 44.77 45.20 46.25 46.84 48.11 49.91 51.59 53.23 53.53 54.86 59.21 60.16 61.15 60.03 60.07 59.49 57.60 57.78 58.45 57.11 53.55 41.34 45.29 44.31
MSLP
1010.31 1010.09 1009.63 1009.62 1009.77 1009.78 1009.82 1009.65 1009.35 1009.11 1009.09 1008.68 1007.90 1007.56 1007.24 1007.02 1006.94 1007.09 1007.09 1006.95 1006.67 1006.52 1006.11 1006.02 1005.68 1005.53 1005.43 1005.26 1005.23 1005.30 1005.14 1005.44 1005.85 1005.49 1005.32 1005.47 1005.49 1005.65 1006.12 1006.28 1006.73 1006.99 1007.30 1007.82
1010.24 1009.60 1009.54 1009.72 1009.84 1009.92 1009.94 1009.74 1009.60 1009.52 1009.20 1008.99 1007.92 1007.18 1006.76 1006.21 1006.06 1006.18 1006.61 1006.98 1006.98 1006.76 1006.67 1006.51 1006.14 1005.96 1005.83 1005.73 1005.38 1005.19 1005.29 1005.08 1004.93 1004.84 1004.70 1004.35 1004.33 1004.54 1005.03 1005.28 1005.59 1005.92 1006.49 1006.93
1009.68 1009.49 1009.58 1009.52 1009.62 1009.68 1009.83 1009.76 1009.89 1009.88 1009.69 1009.29 1008.64 1006.71 1006.43 1005.99 1006.06 1006.17 1006.44 1006.87 1006.94 1006.93 1006.75 1006.60 1006.74 1006.36 1006.09 1005.65 1005.34 1005.05 1004.89 1004.94 1004.76 1004.55 1004.41 1004.34 1004.31 1004.31 1004.20 1004.26 1004.52 1004.70 1005.03 1005.84
1009.65 1009.50 1009.48 1009.45 1009.39 1009.55 1009.61 1009.91 1010.11 1010.21 1010.06 1009.27 1009.38 1007.31 1006.74 1006.35 1006.00 1006.16 1006.31 1006.37 1006.51 1006.69 1006.93 1006.93 1006.78 1006.60 1006.49 1006.07 1005.52 1004.96 1004.79 1004.60 1004.48 1004.43 1003.97 1003.95 1003.48 1003.00 1002.71 1003.17 1003.62 1003.64 1004.24 1004.84
1009.37 1009.31 1009.30 1009.23 1009.17 1009.62 1009.71 1010.16 1010.37 1010.40 1010.07 1009.95 1008.89 1008.49 1006.68 1006.62 1005.91 1005.86 1006.00 1006.11 1006.28 1006.60 1006.87 1006.87 1006.79 1006.49 1006.05 1005.84 1005.60 1005.33 1004.66 1004.21 1004.08 1004.08 1003.72 1003.53 1003.58 1002.70 1002.44 1002.32 1002.78 1003.57 1003.74 1003.93
1009.30 1009.54 1009.36 1009.06 1009.44 1009.71 1010.15 1010.42 1010.71 1010.83 1010.46 1009.51 1008.75 1008.41 1006.51 1006.00 1005.72 1005.74 1005.53 1005.94 1006.25 1006.38 1006.47 1006.46 1006.45 1006.48 1006.15 1005.73 1005.37 1005.22 1004.85 1004.01 1003.55 1003.35 1003.03 1002.97 1002.88 1002.59 1002.18 1001.96 1002.14 1002.49 1002.82 1003.20
1009.34 1009.33 1009.33 1009.36 1009.43 1010.06 1010.13 1010.37 1010.13 1010.11 1009.92 1009.01 1009.20 1008.36 1006.51 1006.00 1005.89 1005.89 1005.82 1005.75 1006.05 1006.40 1006.14 1006.00 1005.67 1005.51 1005.61 1005.38 1005.18 1004.93 1004.68 1004.13 1003.58 1003.05 1002.65 1002.51 1002.37 1001.98 1001.61 1001.42 1001.54 1001.81 1002.24 1002.42
1009.51 1009.46 1009.39 1009.45 1009.36 1009.40 1010.06 1010.42 1010.65 1010.23 1009.85 1009.15 1009.36 1007.23 1005.92 1005.97 1005.96 1005.89 1005.97 1006.14 1006.15 1006.09 1006.20 1006.07 1005.70 1005.46 1005.19 1004.79 1004.54 1004.37 1004.10 1003.77 1003.33 1002.98 1002.43 1002.29 1001.90 1001.25 1000.93 1000.42 1000.69 1000.66 1000.89 1001.12
1010.20 1009.83 1009.85 1009.82 1009.86 1009.99 1010.65 1010.78 1011.30 1010.95 1011.08 1010.23 1008.08 1006.73 1006.44 1005.50 1005.70 1005.64 1005.77 1005.78 1005.77 1005.69 1005.51 1005.42 1005.53 1005.47 1005.02 1004.42 1004.12 1004.06 1003.67 1003.30 1002.92 1002.42 1001.93 1001.29 1000.91 1000.44 999.65 999.22 999.62 999.83 999.98 1000.16
1011.78 1011.13 1010.51 1010.55 1010.38 1010.77 1010.62 1010.99 1011.58 1011.69 1010.98 1009.53 1007.55 1006.53 1005.38 1005.39 1005.28 1005.41 1005.49 1005.51 1005.67 1005.64 1005.36 1005.14 1005.05 1005.09 1004.86 1004.44 1003.86 1003.30 1003.21 1002.81 1002.26 1001.66 1001.22 1000.45 999.97 999.55 999.00 998.72 998.74 999.18 999.33 999.64
1012.92 1013.00 1011.50 1011.43 1010.86 1010.59 1011.00 1010.88 1011.51 1011.76 1011.48 1010.13 1008.14 1005.68 1005.59 1005.43 1005.45 1005.55 1005.65 1005.71 1005.67 1005.51 1005.41 1005.06 1004.62 1004.45 1004.23 1003.83 1003.42 1002.81 1002.13 1001.78 1001.48 1001.17 1000.56 999.92 999.05 998.62 998.46 997.97 997.90 998.32 998.73 999.15
1013.07 1012.67 1011.55 1010.88 1010.80 1010.84 1010.67 1010.54 1010.84 1011.15 1010.91 1010.41 1009.30 1005.56 1005.38 1005.28 1005.52 1005.73 1005.56 1005.43 1005.41 1005.29 1005.00 1004.78 1004.42 1004.06 1003.63 1003.28 1003.00 1002.37 1001.64 1000.97 1000.61 1000.39 999.86 999.04 998.34 997.99 997.61 997.30 997.10 997.67 997.95 998.63
1012.54 1012.92 1012.04 1011.13 1011.33 1011.16 1010.88 1010.75 1010.68 1010.79 1010.83 1009.59 1008.83 1005.13 1005.42 1005.30 1005.20 1005.40 1005.18 1005.08 1005.13 1005.03 1004.64 1004.29 1003.96 1003.45 1003.09 1002.79 1002.46 1001.96 1001.33 1000.64 1000.20 999.91 999.15 998.21 997.51 997.34 996.85 996.55 996.48 996.92 997.49 997.93
1012.88 1012.47 1011.89 1011.15 1010.56 1010.90 1010.70 1010.50 1010.53 1010.32 1009.58 1008.97 1007.24 1004.81 1005.54 1004.94 1004.86 1004.70 1004.85 1004.83 1004.86 1004.62 1004.29 1003.94 1003.53 1002.83 1002.80 1002.53 1002.27 1001.74 1001.04 1000.51 999.78 999.25 998.56 997.91 996.89 996.54 996.23 995.98 996.05 996.47 996.93 997.18
1012.55 1012.23 1012.07 1011.16 1010.63 1010.34 1009.87 1009.54 1009.36 1009.01 1008.57 1008.07 1006.43 1005.60 1004.82 1004.44 1004.38 1004.37 1004.47 1004.58 1004.36 1004.03 1003.70 1003.33 1003.06 1002.71 1002.43 1001.97 1001.65 1001.19 1000.70 1000.14 999.31 998.72 998.06 997.18 996.14 995.58 995.41 995.40 995.66 996.08 996.34 996.74
1012.62 1012.09 1011.70 1010.74 1010.45 1009.93 1009.04 1008.40 1007.78 1007.41 1007.17 1006.57 1005.93 1004.91 1004.27 1004.27 1004.13 1004.21 1004.06 1004.08 1003.83 1003.40 1002.91 1002.60 1002.41 1002.14 1001.91 1001.63 1001.15 1000.77 1000.18 999.76 998.86 998.18 997.42 996.46 995.29 994.60 994.47 994.84 995.17 995.66 996.12 996.66
1012.75 1012.33 1011.94 1010.48 1010.16 1009.47 1008.07 1006.23 1005.87 1005.63 1005.77 1005.43 1004.59 1003.79 1003.68 1003.84 1003.87 1003.86 1003.74 1003.64 1003.21 1002.78 1002.31 1001.81 1001.62 1001.45 1001.36 1001.07 1000.79 1000.31 999.83 999.23 998.16 997.46 996.58 995.60 994.39 994.18 994.15 994.35 994.80 995.44 996.01 996.79
1012.66 1012.83 1012.55 1011.13 1010.56 1008.58 1005.87 1005.64 1005.43 1005.23 1004.97 1004.60 1004.27 1003.98 1003.94 1004.17 1004.13 1004.06 1003.81 1003.28 1002.56 1002.18 1001.71 1001.42 1001.22 1001.01 1000.77 1000.46 1000.01 999.74 999.07 998.22 997.36 996.55 995.57 994.91 993.75 993.69 993.93 993.84 994.43 995.23 995.83 996.83
1012.30 1012.87 1012.34 1011.44 1009.81 1007.59 1006.10 1005.49 1005.63 1005.42 1004.66 1004.77 1004.59 1004.84 1004.91 1004.59 1003.88 1003.50 1003.54 1003.07 1002.51 1002.41 1001.74 1001.27 1000.78 1000.43 1000.02 999.73 999.45 998.95 997.81 997.22 996.50 995.73 994.86 994.15 993.33 993.40 993.56 993.67 994.33 995.10 995.98 997.23
1012.39 1012.72 1012.50 1011.11 1009.51 1007.68 1006.27 1006.37 1006.41 1006.33 1005.16 1005.33 1005.52 1005.24 1005.09 1004.84 1003.69 1002.80 1003.10 1003.00 1002.61 1002.08 1001.32 1000.46 999.99 999.60 999.23 998.92 998.62 997.84 996.80 996.48 995.72 994.96 994.18 993.88 993.20 993.39 993.50 993.79 994.50 995.33 996.36 997.58
1011.99 1012.23 1011.79 1010.73 1009.61 1007.40 1006.57 1006.68 1006.82 1006.32 1005.65 1005.48 1005.42 1005.28 1005.06 1004.89 1004.19 1002.59 1002.65 1002.20 1001.71 1001.09 1000.40 999.90 999.39 998.59 998.09 997.61 997.63 997.02 996.16 995.08 994.73 994.20 993.70 993.06 992.99 993.11 993.68 994.26 995.04 995.74 996.93 997.79
1011.15 1011.06 1010.52 1010.14 1009.01 1007.19 1006.67 1006.77 1006.60 1005.56 1005.20 1005.01 1004.76 1004.84 1004.56 1003.83 1003.04 1002.27 1001.83 1001.29 1000.58 999.94 999.44 998.71 998.08 997.31 996.92 996.54 996.19 995.61 995.05 994.27 994.00 993.50 993.09 992.37 992.75 993.03 993.60 994.68 995.61 996.42 997.03 998.41
1010.61 1010.30 1010.23 1009.89 1007.69 1006.40 1006.33 1006.29 1005.91 1005.44 1004.80 1004.29 1004.19 1003.97 1003.67 1003.04 1002.33 1001.79 1001.02 1000.22 999.69 998.90 998.21 997.46 996.87 996.05 995.58 995.23 995.10 994.27 993.56 993.17 992.62 992.72 992.27 992.24 992.69 993.24 993.81 994.66 995.96 996.71 997.71 998.88
1010.10 1010.16 1009.80 1009.31 1007.11 1006.85 1006.42 1005.84 1005.34 1004.78 1004.35 1003.80 1003.64 1003.36 1003.05 1002.42 1001.60 1000.87 1000.13 999.47 998.62 997.68 996.85 996.25 995.76 995.28 994.51 994.07 993.78 993.54 992.93 992.09 992.09 992.30 991.88 992.24 992.85 993.47 994.34 995.24 996.12 997.13 998.24 999.21
1010.58 1010.50 1009.54 1008.79 1007.79 1007.33 1006.33 1005.65 1005.04 1004.46 1004.01 1003.54 1003.21 1002.98 1002.43 1001.73 1000.80 1000.27 999.42 998.47 997.47 996.64 995.89 995.44 994.87 994.25 993.60 993.10 992.87 992.41 991.72 991.41 991.65 991.33 991.92 992.44 993.11 993.74 994.55 995.68 996.98 997.84 998.78 998.86
1010.68 1010.52 1010.27 1009.16 1008.17 1007.67 1006.30 1005.33 1004.41 1004.07 1003.85 1003.36 1002.78 1002.21 1001.78 1001.14 1000.20 999.48 998.46 997.46 996.54 995.66 995.02 994.33 993.51 992.89 992.18 991.91 991.86 991.50 990.76 990.63 989.25 991.30 992.05 992.57 993.24 994.31 995.11 996.55 998.42 999.69 999.63 999.74
Wind_Speed
1 6 7 6 10 3 2 3 4 3 1 9 10 13 12 13 11 10 9 8 5 6 8 8 12 12 11 10 10 8 5 6 10 8 8 10 12 11 10 11 12 12 11 11
4 7 5 4 3 6 6 5 5 5 5 7 13 17 15 14 9 8 6 5 9 7 6 12 12 10 12 12 11 10 8 4 5 8 8 8 6 9 11 10 12 14 14 13
6 1 4 3 5 7 5 6 4 4 5 7 10 13 2 4 6 2 4 4 5 7 8 8 9 11 12 14 12 12 12 10 6 7 8 8 7 5 6 10 11 13 16 16
5 1 6 3 5 7 7 8 4 4 6 7 2 7 6 3 5 6 8 6 6 6 4 7 10 11 11 12 14 15 12 12 8 5 6 11 11 11 11 11 10 10 15 16
0 5 7 7 4 6 1 5 2 4 9 5 6 7 1 6 6 7 7 5 7 6 4 6 8 11 14 13 12 13 14 13 12 8 7 8 12 11 11 10 11 11 10 15
11 1 4 4 4 3 5 4 1 1 3 6 1 5 4 7 8 4 8 8 10 8 10 10 9 8 10 12 12 11 13 15 13 12 9 10 12 13 11 12 11 9 8 10
5 5 1 3 5 3 4 1 4 4 5 3 3 8 9 7 11 10 12 14 10 11 13 14 14 13 11 13 13 12 11 14 14 14 13 11 13 14 15 14 11 10 8 9
6 8 7 4 5 4 4 3 3 6 5 6 5 10 2 4 6 10 12 10 8 12 12 12 14 14 12 14 13 14 13 13 13 14 15 13 15 11 12 14 12 10 10 11
3 6 1 3 1 3 5 6 3 5 1 7 7 7 9 9 8 4 3 2 10 13 15 12 11 11 13 14 13 13 14 14 15 15 14 14 13 14 12 15 12 11 11 9
6 6 1 3 2 1 5 9 4 2 5 6 6 12 9 8 10 6 7 9 12 14 15 15 9 9 10 11 13 15 12 13 15 15 15 14 15 15 14 12 13 13 10 12
3 5 2 4 7 14 6 7 2 2 4 5 6 5 3 5 7 11 11 10 14 15 13 14 12 10 10 12 13 14 14 12 14 14 15 16 15 15 14 13 13 13 11 12
10 5 10 10 3 4 5 10 11 8 7 5 5 11 4 9 5 5 14 18 16 14 14 14 12 13 13 12 13 15 15 14 14 16 17 16 17 15 15 15 14 14 13 13
4 5 3 3 2 1 5 8 9 8 4 12 11 10 5 6 15 19 20 17 15 14 15 16 15 15 14 13 14 15 16 15 15 17 18 17 17 16 16 15 14 14 14 14
1 5 9 10 9 1 6 6 10 14 11 13 20 33 23 25 24 19 18 14 12 14 14 17 17 15 14 15 16 17 16 16 15 17 18 17 19 17 16 14 14 15 14 14
5 12 14 19 19 17 19 18 19 21 21 21 20 27 23 23 20 18 12 12 15 15 16 17 16 14 16 17 18 18 17 19 14 18 18 17 20 15 15 14 14 14 14 13
4 6 4 13 11 14 20 22 25 25 24 25 26 29 28 23 18 12 13 12 15 18 21 19 16 16 17 19 19 20 19 20 16 18 19 16 20 14 15 15 14 13 13 14
4 5 6 11 6 8 14 26 25 22 19 17 18 18 15 13 13 13 12 16 20 22 22 20 20 19 19 19 19 20 20 19 17 16 19 16 14 13 15 15 15 16 15 15
13 7 4 6 6 9 5 3 6 8 14 16 18 18 16 14 13 16 17 20 21 21 23 22 20 21 20 21 18 19 19 18 17 18 18 17 11 13 14 16 16 14 13 15
17 9 4 5 6 13 17 3 1 4 10 8 12 8 12 20 23 20 14 18 20 25 25 23 22 22 20 18 16 16 19 16 17 19 15 15 10 12 15 15 14 12 13 13
5 6 4 3 5 5 3 3 3 1 12 3 8 15 23 20 15 14 21 22 25 26 22 20 23 21 20 19 18 16 17 17 17 17 14 12 9 12 13 14 15 12 14 13
4 4 10 10 7 8 3 3 2 6 5 11 18 20 13 13 20 25 25 22 22 20 23 21 19 19 19 18 16 16 17 19 16 16 15 13 12 12 11 12 12 14 14 14
3 3 3 3 6 8 4 3 5 11 19 20 19 17 21 24 27 27 21 23 21 21 20 20 16 17 17 17 13 17 16 18 17 13 13 11 11 11 12 15 13 14 16 15
4 4 2 6 6 6 8 13 17 17 19 20 15 19 21 27 23 19 22 20 19 20 17 16 15 17 14 15 14 16 16 15 15 9 12 11 13 12 14 17 15 14 14 11
4 2 6 6 6 12 14 18 19 18 19 21 17 20 24 23 20 22 19 18 18 17 16 16 16 17 17 15 14 13 16 16 9 11 11 12 13 13 13 11 11 11 12 12
8 6 7 12 17 13 13 16 18 20 19 21 19 24 22 21 18 19 19 19 17 16 16 15 15 15 18 15 13 12 17 10 9 12 12 12 11 13 13 10 10 12 11 11
1 3 3 5 13 15 17 21 23 19 24 24 22 18 18 18 18 18 17 18 16 17 17 16 17 16 18 16 13 13 9 8 10 11 10 10 10 9 13 12 10 19 11 13
Wind_Direction
66 222 224 247 235 241 240 243 247 272 178 322 300 298 291 286 280 248 225 249 266 266 291 324 326 327 335 337 348 357 353 241 220 216 214 225 227 222 222 222 224 217 210 202
218 236 210 237 183 193 203 211 224 290 290 310 309 303 291 285 272 267 272 243 283 288 290 311 317 325 327 324 327 332 334 331 243 229 232 227 219 229 232 224 215 210 211 208
237 283 186 217 166 172 185 204 189 268 312 272 304 287 168 319 270 224 322 309 262 275 295 312 320 331 331 329 327 323 321 316 294 250 242 237 232 228 221 225 223 214 204 205
250 180 192 185 226 206 208 198 202 239 293 300 328 292 262 239 334 150 16 351 329 313 307 314 325 331 330 322 322 317 313 310 296 282 248 235 240 232 222 228 229 215 206 205
19 194 194 231 229 189 135 158 224 275 286 280 230 251 260 214 255 211 328 325 338 344 328 314 314 323 320 324 322 314 309 304 300 299 261 245 244 244 241 230 233 221 202 203
264 223 237 248 122 169 135 168 125 152 244 249 169 261 174 208 217 239 314 323 316 332 343 327 318 313 315 319 318 313 304 299 302 304 291 257 247 239 241 235 231 222 207 204
235 217 223 201 162 140 169 205 287 234 209 290 125 281 261 240 240 256 293 302 315 337 328 328 322 326 322 323 319 315 303 294 299 303 292 266 247 243 236 236 230 208 196 200
250 240 179 178 230 195 168 209 254 288 267 298 225 247 223 183 266 285 298 311 317 338 334 319 314 316 314 322 322 314 303 294 293 292 283 272 255 242 232 227 230 216 210 209
274 233 305 76 9 229 142 214 359 262 308 272 245 260 257 259 228 280 342 339 348 342 334 328 314 302 305 316 317 317 304 299 294 289 284 276 263 242 236 231 223 225 211 201
340 279 24 42 88 95 259 143 179 173 257 256 252 272 254 278 300 307 312 327 340 340 331 330 315 306 302 307 311 316 299 297 297 295 286 277 270 256 243 235 224 222 207 199
78 253 206 168 227 252 201 202 151 254 239 268 295 257 229 246 291 305 301 316 324 326 323 325 314 307 307 308 309 313 311 315 313 308 296 286 270 257 243 233 225 223 205 195
190 275 247 247 156 279 262 251 220 228 216 238 287 267 213 244 291 305 306 307 311 308 307 311 308 307 304 305 311 312 313 311 310 312 304 291 278 265 239 228 219 210 200 195
164 212 274 238 162 98 223 204 220 230 245 241 257 248 148 257 282 304 299 302 299 297 306 312 309 303 300 305 305 312 305 312 310 307 307 301 279 260 237 223 210 201 195 186
225 244 238 254 274 154 234 214 217 227 243 255 244 274 279 282 290 298 292 290 291 301 303 308 306 296 299 306 306 303 304 301 311 308 303 300 284 255 235 219 202 195 188 179
232 254 249 256 264 264 263 269 260 248 250 249 267 266 274 277 291 297 299 292 299 298 301 310 300 294 302 309 311 306 304 298 314 304 302 294 286 252 229 211 196 187 180 175
187 264 288 261 259 254 265 265 262 258 259 259 260 265 268 278 282 278 295 300 294 300 300 299 289 284 293 301 307 305 301 295 310 301 296 290 278 237 212 197 181 174 168 166
266 265 283 274 288 281 265 250 252 254 249 249 256 266 285 291 289 288 288 294 294 302 303 296 296 289 293 296 299 294 294 292 300 293 289 286 258 219 200 179 165 164 159 157
244 243 238 285 289 247 270 295 261 260 255 253 262 280 304 308 302 298 297 295 297 302 298 297 297 293 292 293 293 292 286 289 292 294 287 286 219 199 185 163 157 146 146 153
219 211 236 241 219 296 284 271 288 244 286 306 287 316 317 311 304 289 297 300 306 305 297 294 291 290 287 288 287 280 280 284 288 286 288 284 212 186 174 157 145 140 132 136
158 226 224 248 274 269 3 93 116 303 268 124 330 312 317 315 291 295 305 305 295 295 287 290 291 288 285 282 284 283 282 281 276 284 281 276 210 183 164 147 143 134 133 124
147 176 224 244 260 274 342 144 177 253 2 323 313 312 297 282 286 303 301 293 293 288 288 287 284 284 283 282 275 271 272 271 276 274 278 261 199 172 144 132 130 128 123 111
239 230 224 227 244 262 143 212 275 322 304 298 300 296 293 294 299 299 293 294 290 289 286 285 280 276 277 276 274 267 261 266 268 266 271 209 174 147 137 132 129 128 117 118
255 225 263 225 248 292 269 278 289 285 287 297 291 290 297 304 297 289 291 291 294 286 282 281 279 279 275 271 266 272 275 274 272 246 249 164 149 145 138 136 132 118 123 124
273 260 251 292 269 272 298 299 294 296 298 300 286 295 305 298 285 288 294 292 290 288 287 284 284 280 277 271 270 257 269 260 241 260 155 144 137 129 134 129 124 125 132 138
282 298 258 270 286 313 285 299 300 303 302 300 290 305 299 289 289 293 289 288 287 287 287 286 279 274 268 267 263 264 264 210 224 149 142 130 130 135 122 101 127 137 146 145
257 268 270 276 288 281 286 304 303 316 319 310 303 300 298 295 287 288 287 290 293 295 294 290 280 264 257 262 256 261 209 229 150 125 134 124 112 117 116 108 85 42 70 85